Year,Month,Day,Hour,Minute,Value (Times are PST for temperature in C)
2010,03,02,00,00,7.00
2010,03,02,00,01,7.00
2010,03,02,00,02,7.00
2010,03,02,00,03,7.00
2010,03,02,00,04,7.00
2010,03,02,00,05,7.00
2010,03,02,00,06,7.00
2010,03,02,00,07,7.00
2010,03,02,00,08,7.00
2010,03,02,00,09,7.00
2010,03,02,00,10,7.00
2010,03,02,00,11,7.00
2010,03,02,00,12,7.00
2010,03,02,00,13,7.00
2010,03,02,00,14,7.00
2010,03,02,00,15,7.00
2010,03,02,00,16,7.00
2010,03,02,00,17,7.00
2010,03,02,00,18,7.00
2010,03,02,00,19,7.00
2010,03,02,00,20,7.10
2010,03,02,00,21,7.10
2010,03,02,00,22,7.10
2010,03,02,00,23,7.10
2010,03,02,00,24,7.00
2010,03,02,00,25,7.00
2010,03,02,00,26,7.00
2010,03,02,00,27,7.00
2010,03,02,00,28,7.00
2010,03,02,00,29,7.00
2010,03,02,00,30,6.90
2010,03,02,00,31,7.00
2010,03,02,00,32,7.00
2010,03,02,00,33,7.00
2010,03,02,00,34,7.00
2010,03,02,00,35,7.00
2010,03,02,00,36,7.00
2010,03,02,00,37,6.90
2010,03,02,00,38,6.90
2010,03,02,00,39,6.90
2010,03,02,00,40,6.90
2010,03,02,00,41,6.90
2010,03,02,00,42,6.90
2010,03,02,00,43,6.80
2010,03,02,00,44,6.80
2010,03,02,00,45,6.80
2010,03,02,00,46,6.80
2010,03,02,00,47,6.80
2010,03,02,00,48,6.80
2010,03,02,00,49,6.80
2010,03,02,00,50,6.80
2010,03,02,00,51,6.80
2010,03,02,00,52,6.80
2010,03,02,00,53,6.80
2010,03,02,00,54,6.80
2010,03,02,00,55,6.80
2010,03,02,00,56,6.80
2010,03,02,00,57,6.80
2010,03,02,00,58,6.70
2010,03,02,00,59,6.70
2010,03,02,01,00,6.70
2010,03,02,01,01,6.70
2010,03,02,01,02,6.70
2010,03,02,01,03,6.70
2010,03,02,01,04,6.70
2010,03,02,01,05,6.70
2010,03,02,01,06,6.80
2010,03,02,01,07,6.80
2010,03,02,01,08,6.80
2010,03,02,01,09,6.80
2010,03,02,01,10,6.80
2010,03,02,01,11,6.70
2010,03,02,01,12,6.70
2010,03,02,01,13,6.70
2010,03,02,01,14,6.70
2010,03,02,01,15,6.70
2010,03,02,01,16,6.70
2010,03,02,01,17,6.70
2010,03,02,01,18,6.70
2010,03,02,01,19,6.70
2010,03,02,01,20,6.80
2010,03,02,01,21,6.80
2010,03,02,01,22,6.80
2010,03,02,01,23,6.80
2010,03,02,01,24,6.80
2010,03,02,01,25,6.80
2010,03,02,01,26,6.80
2010,03,02,01,27,6.90
2010,03,02,01,28,6.90
2010,03,02,01,29,6.90
2010,03,02,01,30,6.90
2010,03,02,01,31,6.80
2010,03,02,01,32,6.80
2010,03,02,01,33,6.80
2010,03,02,01,34,6.80
2010,03,02,01,35,6.80
2010,03,02,01,36,6.80
2010,03,02,01,37,6.90
2010,03,02,01,38,6.90
2010,03,02,01,39,6.90
2010,03,02,01,40,6.90
2010,03,02,01,41,6.90
2010,03,02,01,42,7.00
2010,03,02,01,43,7.00
2010,03,02,01,44,7.00
2010,03,02,01,45,7.00
2010,03,02,01,46,7.00
2010,03,02,01,47,7.00
2010,03,02,01,48,7.00
2010,03,02,01,49,7.00
2010,03,02,01,50,7.00
2010,03,02,01,51,7.00
2010,03,02,01,52,7.00
2010,03,02,01,53,7.00
2010,03,02,01,54,6.90
2010,03,02,01,55,6.90
2010,03,02,01,56,6.90
2010,03,02,01,57,6.80
2010,03,02,01,58,6.80
2010,03,02,01,59,6.80
2010,03,02,02,00,6.80
2010,03,02,02,01,6.80
2010,03,02,02,02,6.80
2010,03,02,02,03,6.80
2010,03,02,02,04,6.80
2010,03,02,02,05,6.80
2010,03,02,02,06,6.80
2010,03,02,02,07,6.80
2010,03,02,02,08,6.80
2010,03,02,02,09,6.80
2010,03,02,02,10,6.80
2010,03,02,02,11,6.80
2010,03,02,02,12,6.90
2010,03,02,02,13,6.90
2010,03,02,02,14,6.90
2010,03,02,02,15,6.90
2010,03,02,02,16,6.90
2010,03,02,02,17,6.90
2010,03,02,02,18,6.90
2010,03,02,02,19,6.90
2010,03,02,02,20,6.90
2010,03,02,02,21,6.90
2010,03,02,02,22,7.00
2010,03,02,02,23,7.00
2010,03,02,02,24,7.00
2010,03,02,02,25,7.00
2010,03,02,02,26,7.10
2010,03,02,02,27,7.20
2010,03,02,02,28,7.20
2010,03,02,02,29,7.20
2010,03,02,02,30,7.30
2010,03,02,02,31,7.30
2010,03,02,02,32,7.30
2010,03,02,02,33,7.30
2010,03,02,02,34,7.30
2010,03,02,02,35,7.30
2010,03,02,02,36,7.40
2010,03,02,02,37,7.40
2010,03,02,02,38,7.40
2010,03,02,02,39,7.40
2010,03,02,02,40,7.40
2010,03,02,02,41,7.40
2010,03,02,02,42,7.40
2010,03,02,02,43,7.40
2010,03,02,02,44,7.30
2010,03,02,02,45,7.30
2010,03,02,02,46,7.30
2010,03,02,02,47,7.30
2010,03,02,02,48,7.30
2010,03,02,02,49,7.30
2010,03,02,02,50,7.30
2010,03,02,02,51,7.30
2010,03,02,02,52,7.30
2010,03,02,02,53,7.30
2010,03,02,02,54,7.30
2010,03,02,02,55,7.30
2010,03,02,02,56,7.30
2010,03,02,02,57,7.30
2010,03,02,02,58,7.30
2010,03,02,02,59,7.30
2010,03,02,03,00,7.30
2010,03,02,03,01,7.30
2010,03,02,03,02,7.30
2010,03,02,03,03,7.30
2010,03,02,03,04,7.30
2010,03,02,03,05,7.30
2010,03,02,03,06,7.30
2010,03,02,03,07,7.30
2010,03,02,03,08,7.30
2010,03,02,03,09,7.30
2010,03,02,03,10,7.30
2010,03,02,03,11,7.30
2010,03,02,03,12,7.30
2010,03,02,03,13,7.30
2010,03,02,03,14,7.30
2010,03,02,03,15,7.30
2010,03,02,03,16,7.30
2010,03,02,03,17,7.40
2010,03,02,03,18,7.40
2010,03,02,03,19,7.40
2010,03,02,03,20,7.40
2010,03,02,03,21,7.40
2010,03,02,03,22,7.40
2010,03,02,03,23,7.40
2010,03,02,03,24,7.40
2010,03,02,03,25,7.30
2010,03,02,03,26,7.30
2010,03,02,03,27,7.30
2010,03,02,03,28,7.30
2010,03,02,03,29,7.30
2010,03,02,03,30,7.30
2010,03,02,03,31,7.40
2010,03,02,03,32,7.40
2010,03,02,03,33,7.40
2010,03,02,03,34,7.40
2010,03,02,03,35,7.40
2010,03,02,03,36,7.50
2010,03,02,03,37,7.50
2010,03,02,03,38,7.50
2010,03,02,03,39,7.50
2010,03,02,03,40,7.50
2010,03,02,03,41,7.50
2010,03,02,03,42,7.50
2010,03,02,03,43,7.50
2010,03,02,03,44,7.50
2010,03,02,03,45,7.50
2010,03,02,03,46,7.50
2010,03,02,03,47,7.50
2010,03,02,03,48,7.50
2010,03,02,03,49,7.50
2010,03,02,03,50,7.50
2010,03,02,03,51,7.50
2010,03,02,03,52,7.50
2010,03,02,03,53,7.50
2010,03,02,03,54,7.50
2010,03,02,03,55,7.50
2010,03,02,03,56,7.50
2010,03,02,03,57,7.50
2010,03,02,03,58,7.50
2010,03,02,03,59,7.50
2010,03,02,04,00,7.50
2010,03,02,04,01,7.50
2010,03,02,04,02,7.50
2010,03,02,04,03,7.50
2010,03,02,04,04,7.50
2010,03,02,04,05,7.50
2010,03,02,04,06,7.50
2010,03,02,04,07,7.50
2010,03,02,04,08,7.50
2010,03,02,04,09,7.60
2010,03,02,04,10,7.60
2010,03,02,04,11,7.60
2010,03,02,04,12,7.60
2010,03,02,04,13,7.60
2010,03,02,04,14,7.60
2010,03,02,04,15,7.60
2010,03,02,04,16,7.60
2010,03,02,04,17,7.60
2010,03,02,04,18,7.60
2010,03,02,04,19,7.60
2010,03,02,04,20,7.60
2010,03,02,04,21,7.60
2010,03,02,04,22,7.60
2010,03,02,04,23,7.60
2010,03,02,04,24,7.60
2010,03,02,04,25,7.60
2010,03,02,04,26,7.60
2010,03,02,04,27,7.60
2010,03,02,04,28,7.60
2010,03,02,04,29,7.60
2010,03,02,04,30,7.60
2010,03,02,04,31,7.50
2010,03,02,04,32,7.50
2010,03,02,04,33,7.50
2010,03,02,04,34,7.50
2010,03,02,04,35,7.50
2010,03,02,04,36,7.50
2010,03,02,04,37,7.50
2010,03,02,04,38,7.50
2010,03,02,04,39,7.50
2010,03,02,04,40,7.50
2010,03,02,04,41,7.50
2010,03,02,04,42,7.50
2010,03,02,04,43,7.60
2010,03,02,04,44,7.60
2010,03,02,04,45,7.70
2010,03,02,04,46,7.70
2010,03,02,04,47,7.70
2010,03,02,04,48,7.80
2010,03,02,04,49,7.80
2010,03,02,04,50,7.80
2010,03,02,04,51,7.90
2010,03,02,04,52,7.90
2010,03,02,04,53,8.00
2010,03,02,04,54,8.00
2010,03,02,04,55,8.10
2010,03,02,04,56,8.10
2010,03,02,04,57,8.20
2010,03,02,04,58,8.20
2010,03,02,04,59,8.20
2010,03,02,05,00,8.20
2010,03,02,05,01,8.30
2010,03,02,05,02,8.30
2010,03,02,05,03,8.30
2010,03,02,05,04,8.30
2010,03,02,05,05,8.30
2010,03,02,05,06,8.40
2010,03,02,05,07,8.40
2010,03,02,05,08,8.40
2010,03,02,05,09,8.40
2010,03,02,05,10,8.50
2010,03,02,05,11,8.50
2010,03,02,05,12,8.50
2010,03,02,05,13,8.50
2010,03,02,05,14,8.60
2010,03,02,05,15,8.60
2010,03,02,05,16,8.60
2010,03,02,05,17,8.70
2010,03,02,05,18,8.70
2010,03,02,05,19,8.70
2010,03,02,05,20,8.70
2010,03,02,05,21,8.70
2010,03,02,05,22,8.70
2010,03,02,05,23,8.70
2010,03,02,05,24,8.70
2010,03,02,05,25,8.70
2010,03,02,05,26,8.70
2010,03,02,05,27,8.70
2010,03,02,05,28,8.70
2010,03,02,05,29,8.70
2010,03,02,05,30,8.70
2010,03,02,05,31,8.70
2010,03,02,05,32,8.70
2010,03,02,05,33,8.70
2010,03,02,05,34,8.70
2010,03,02,05,35,8.70
2010,03,02,05,36,8.70
2010,03,02,05,37,8.70
2010,03,02,05,38,8.70
2010,03,02,05,39,8.60
2010,03,02,05,40,8.60
2010,03,02,05,41,8.60
2010,03,02,05,42,8.60
2010,03,02,05,43,8.60
2010,03,02,05,44,8.60
2010,03,02,05,45,8.60
2010,03,02,05,46,8.60
2010,03,02,05,47,8.60
2010,03,02,05,48,8.50
2010,03,02,05,49,8.50
2010,03,02,05,50,8.50
2010,03,02,05,51,8.50
2010,03,02,05,52,8.50
2010,03,02,05,53,8.40
2010,03,02,05,54,8.40
2010,03,02,05,55,8.40
2010,03,02,05,56,8.40
2010,03,02,05,57,8.40
2010,03,02,05,58,8.30
2010,03,02,05,59,8.30
2010,03,02,06,00,8.30
2010,03,02,06,01,8.30
2010,03,02,06,02,8.30
2010,03,02,06,03,8.30
2010,03,02,06,04,8.30
2010,03,02,06,05,8.30
2010,03,02,06,06,8.30
2010,03,02,06,07,8.30
2010,03,02,06,08,8.30
2010,03,02,06,09,8.30
2010,03,02,06,10,8.30
2010,03,02,06,11,8.30
2010,03,02,06,12,8.30
2010,03,02,06,13,8.30
2010,03,02,06,14,8.30
2010,03,02,06,15,8.30
2010,03,02,06,16,8.30
2010,03,02,06,17,8.30
2010,03,02,06,18,8.30
2010,03,02,06,19,8.30
2010,03,02,06,20,8.30
2010,03,02,06,21,8.20
2010,03,02,06,22,8.20
2010,03,02,06,23,8.20
2010,03,02,06,24,8.20
2010,03,02,06,25,8.20
2010,03,02,06,26,8.20
2010,03,02,06,27,8.20
2010,03,02,06,28,8.20
2010,03,02,06,29,8.20
2010,03,02,06,30,8.20
2010,03,02,06,31,8.20
2010,03,02,06,32,8.20
2010,03,02,06,33,8.20
2010,03,02,06,34,8.20
2010,03,02,06,35,8.20
2010,03,02,06,36,8.10
2010,03,02,06,37,8.10
2010,03,02,06,38,8.10
2010,03,02,06,39,8.10
2010,03,02,06,40,8.10
2010,03,02,06,41,8.20
2010,03,02,06,42,8.20
2010,03,02,06,43,8.20
2010,03,02,06,44,8.20
2010,03,02,06,45,8.20
2010,03,02,06,46,8.20
2010,03,02,06,47,8.20
2010,03,02,06,48,8.20
2010,03,02,06,49,8.20
2010,03,02,06,50,8.20
2010,03,02,06,51,8.20
2010,03,02,06,52,8.20
2010,03,02,06,53,8.20
2010,03,02,06,54,8.20
2010,03,02,06,55,8.20
2010,03,02,06,56,8.20
2010,03,02,06,57,8.20
2010,03,02,06,58,8.20
2010,03,02,06,59,8.20
2010,03,02,07,00,8.20
2010,03,02,07,01,8.20
2010,03,02,07,02,8.20
2010,03,02,07,03,8.20
2010,03,02,07,04,8.20
2010,03,02,07,05,8.20
2010,03,02,07,06,8.20
2010,03,02,07,07,8.20
2010,03,02,07,08,8.20
2010,03,02,07,09,8.20
2010,03,02,07,10,8.20
2010,03,02,07,11,8.20
2010,03,02,07,12,8.20
2010,03,02,07,13,8.20
2010,03,02,07,14,8.20
2010,03,02,07,15,8.20
2010,03,02,07,16,8.20
2010,03,02,07,17,8.20
2010,03,02,07,18,8.20
2010,03,02,07,19,8.20
2010,03,02,07,20,8.20
2010,03,02,07,21,8.20
2010,03,02,07,22,8.20
2010,03,02,07,23,8.20
2010,03,02,07,24,8.20
2010,03,02,07,25,8.20
2010,03,02,07,26,8.20
2010,03,02,07,27,8.20
2010,03,02,07,28,8.20
2010,03,02,07,29,8.20
2010,03,02,07,30,8.10
2010,03,02,07,31,8.10
2010,03,02,07,32,8.10
2010,03,02,07,33,8.10
2010,03,02,07,34,8.10
2010,03,02,07,35,8.10
2010,03,02,07,36,8.10
2010,03,02,07,37,8.10
2010,03,02,07,38,8.10
2010,03,02,07,39,8.10
2010,03,02,07,40,8.10
2010,03,02,07,41,8.10
2010,03,02,07,42,8.10
2010,03,02,07,43,8.10
2010,03,02,07,44,8.10
2010,03,02,07,45,8.10
2010,03,02,07,46,8.10
2010,03,02,07,47,8.10
2010,03,02,07,48,8.10
2010,03,02,07,49,8.10
2010,03,02,07,50,8.10
2010,03,02,07,51,8.10
2010,03,02,07,52,8.10
2010,03,02,07,53,8.10
2010,03,02,07,54,8.10
2010,03,02,07,55,8.20
2010,03,02,07,56,8.20
2010,03,02,07,57,8.20
2010,03,02,07,58,8.20
2010,03,02,07,59,8.20
2010,03,02,08,00,8.20
2010,03,02,08,01,8.20
2010,03,02,08,02,8.20
2010,03,02,08,03,8.20
2010,03,02,08,04,8.20
2010,03,02,08,05,8.20
2010,03,02,08,06,8.20
2010,03,02,08,07,8.20
2010,03,02,08,08,8.20
2010,03,02,08,09,8.20
2010,03,02,08,10,8.20
2010,03,02,08,11,8.20
2010,03,02,08,12,8.20
2010,03,02,08,13,8.20
2010,03,02,08,14,8.20
2010,03,02,08,15,8.20
2010,03,02,08,16,8.20
2010,03,02,08,17,8.20
2010,03,02,08,18,8.20
2010,03,02,08,19,8.20
2010,03,02,08,20,8.20
2010,03,02,08,21,8.20
2010,03,02,08,22,8.20
2010,03,02,08,23,8.20
2010,03,02,08,24,8.20
2010,03,02,08,25,8.20
2010,03,02,08,26,8.20
2010,03,02,08,27,8.20
2010,03,02,08,28,8.20
2010,03,02,08,29,8.20
2010,03,02,08,30,8.20
2010,03,02,08,31,8.20
2010,03,02,08,32,8.20
2010,03,02,08,33,8.20
2010,03,02,08,34,8.20
2010,03,02,08,35,8.30
2010,03,02,08,36,8.30
2010,03,02,08,37,8.30
2010,03,02,08,38,8.30
2010,03,02,08,39,8.30
2010,03,02,08,40,8.30
2010,03,02,08,41,8.30
2010,03,02,08,42,8.30
2010,03,02,08,43,8.30
2010,03,02,08,44,8.30
2010,03,02,08,45,8.40
2010,03,02,08,46,8.40
2010,03,02,08,47,8.40
2010,03,02,08,48,8.40
2010,03,02,08,49,8.50
2010,03,02,08,50,8.50
2010,03,02,08,51,8.50
2010,03,02,08,52,8.50
2010,03,02,08,53,8.50
2010,03,02,08,54,8.50
2010,03,02,08,55,8.60
2010,03,02,08,56,8.60
2010,03,02,08,57,8.60
2010,03,02,08,58,8.60
2010,03,02,08,59,8.70
2010,03,02,09,00,8.70
2010,03,02,09,01,8.70
2010,03,02,09,02,8.70
2010,03,02,09,03,8.70
2010,03,02,09,04,8.70
2010,03,02,09,05,8.70
2010,03,02,09,06,8.80
2010,03,02,09,07,8.90
2010,03,02,09,08,8.90
2010,03,02,09,09,9.00
2010,03,02,09,10,9.00
2010,03,02,09,11,9.00
2010,03,02,09,12,9.00
2010,03,02,09,13,9.00
2010,03,02,09,14,9.00
2010,03,02,09,15,9.00
2010,03,02,09,16,9.00
2010,03,02,09,17,9.10
2010,03,02,09,18,9.10
2010,03,02,09,19,9.10
2010,03,02,09,20,9.20
2010,03,02,09,21,9.20
2010,03,02,09,22,9.20
2010,03,02,09,23,9.20
2010,03,02,09,24,9.20
2010,03,02,09,25,9.30
2010,03,02,09,26,9.30
2010,03,02,09,27,9.40
2010,03,02,09,28,9.40
2010,03,02,09,29,9.40
2010,03,02,09,30,9.50
2010,03,02,09,31,9.50
2010,03,02,09,32,9.50
2010,03,02,09,33,9.60
2010,03,02,09,34,9.60
2010,03,02,09,35,9.60
2010,03,02,09,36,9.70
2010,03,02,09,37,9.70
2010,03,02,09,38,9.70
2010,03,02,09,39,9.70
2010,03,02,09,40,9.70
2010,03,02,09,41,9.70
2010,03,02,09,42,9.70
2010,03,02,09,43,9.80
2010,03,02,09,44,9.80
2010,03,02,09,45,9.80
2010,03,02,09,46,9.80
2010,03,02,09,47,9.90
2010,03,02,09,48,9.90
2010,03,02,09,49,9.90
2010,03,02,09,50,9.90
2010,03,02,09,51,9.90
2010,03,02,09,52,9.90
2010,03,02,09,53,9.90
2010,03,02,09,54,10.00
2010,03,02,09,55,10.10
2010,03,02,09,56,10.10
2010,03,02,09,57,10.10
2010,03,02,09,58,10.10
2010,03,02,09,59,10.10
2010,03,02,10,00,10.10
2010,03,02,10,01,10.10
2010,03,02,10,02,10.10
2010,03,02,10,03,10.10
2010,03,02,10,04,10.20
2010,03,02,10,05,10.20
2010,03,02,10,06,10.20
2010,03,02,10,07,10.20
2010,03,02,10,08,10.20
2010,03,02,10,09,10.20
2010,03,02,10,10,10.20
2010,03,02,10,11,10.20
2010,03,02,10,12,10.20
2010,03,02,10,13,10.20
2010,03,02,10,14,10.30
2010,03,02,10,15,10.30
2010,03,02,10,16,10.30
2010,03,02,10,17,10.40
2010,03,02,10,18,10.40
2010,03,02,10,19,10.40
2010,03,02,10,20,10.40
2010,03,02,10,21,10.40
2010,03,02,10,22,10.40
2010,03,02,10,23,10.40
2010,03,02,10,24,10.40
2010,03,02,10,25,10.40
2010,03,02,10,26,10.40
2010,03,02,10,27,10.40
2010,03,02,10,28,10.40
2010,03,02,10,29,10.40
2010,03,02,10,30,10.40
2010,03,02,10,31,10.40
2010,03,02,10,32,10.40
2010,03,02,10,33,10.40
2010,03,02,10,34,10.40
2010,03,02,10,35,10.40
2010,03,02,10,36,10.40
2010,03,02,10,37,10.40
2010,03,02,10,38,10.40
2010,03,02,10,39,10.40
2010,03,02,10,40,10.40
2010,03,02,10,41,10.40
2010,03,02,10,42,10.40
2010,03,02,10,43,10.40
2010,03,02,10,44,10.40
2010,03,02,10,45,10.40
2010,03,02,10,46,10.40
2010,03,02,10,47,10.40
2010,03,02,10,48,10.40
2010,03,02,10,49,10.40
2010,03,02,10,50,10.50
2010,03,02,10,51,10.60
2010,03,02,10,52,10.60
2010,03,02,10,53,10.60
2010,03,02,10,54,10.60
2010,03,02,10,55,10.60
2010,03,02,10,56,10.60
2010,03,02,10,57,10.60
2010,03,02,10,58,10.60
2010,03,02,10,59,10.60
2010,03,02,11,00,10.60
2010,03,02,11,01,10.60
2010,03,02,11,02,10.60
2010,03,02,11,03,10.60
2010,03,02,11,04,10.60
2010,03,02,11,05,10.60
2010,03,02,11,06,10.60
2010,03,02,11,07,10.60
2010,03,02,11,08,10.60
2010,03,02,11,09,10.60
2010,03,02,11,10,10.60
2010,03,02,11,11,10.60
2010,03,02,11,12,10.60
2010,03,02,11,13,10.40
2010,03,02,11,14,10.40
2010,03,02,11,15,10.40
2010,03,02,11,16,10.40
2010,03,02,11,17,10.50
2010,03,02,11,18,10.60
2010,03,02,11,19,10.60
2010,03,02,11,20,10.60
2010,03,02,11,21,10.60
2010,03,02,11,22,10.60
2010,03,02,11,23,10.60
2010,03,02,11,24,10.60
2010,03,02,11,25,10.70
2010,03,02,11,26,10.70
2010,03,02,11,27,10.70
2010,03,02,11,28,10.70
2010,03,02,11,29,10.70
2010,03,02,11,30,10.70
2010,03,02,11,31,10.70
2010,03,02,11,32,10.80
2010,03,02,11,33,10.80
2010,03,02,11,34,10.80
2010,03,02,11,35,10.80
2010,03,02,11,36,10.80
2010,03,02,11,37,10.90
2010,03,02,11,38,10.90
2010,03,02,11,39,10.90
2010,03,02,11,40,10.90
2010,03,02,11,41,10.90
2010,03,02,11,42,10.90
2010,03,02,11,43,10.90
2010,03,02,11,44,10.90
2010,03,02,11,45,10.80
2010,03,02,11,46,10.80
2010,03,02,11,47,10.80
2010,03,02,11,48,10.80
2010,03,02,11,49,10.80
2010,03,02,11,50,10.80
2010,03,02,11,51,10.80
2010,03,02,11,52,10.80
2010,03,02,11,53,10.80
2010,03,02,11,54,10.80
2010,03,02,11,55,10.80
2010,03,02,11,56,10.80
2010,03,02,11,57,10.80
2010,03,02,11,58,10.80
2010,03,02,11,59,10.90
2010,03,02,12,00,10.90
2010,03,02,12,01,10.90
2010,03,02,12,02,10.90
2010,03,02,12,03,10.90
2010,03,02,12,04,10.90
2010,03,02,12,05,10.90
2010,03,02,12,06,10.90
2010,03,02,12,07,10.90
2010,03,02,12,08,10.90
2010,03,02,12,09,10.90
2010,03,02,12,10,10.90
2010,03,02,12,11,11.00
2010,03,02,12,12,11.10
2010,03,02,12,13,11.10
2010,03,02,12,14,11.10
2010,03,02,12,15,11.10
2010,03,02,12,16,11.10
2010,03,02,12,17,11.10
2010,03,02,12,18,11.10
2010,03,02,12,19,11.10
2010,03,02,12,20,11.10
2010,03,02,12,21,11.10
2010,03,02,12,22,11.10
2010,03,02,12,23,11.20
2010,03,02,12,24,11.20
2010,03,02,12,25,11.20
2010,03,02,12,26,11.20
2010,03,02,12,27,11.30
2010,03,02,12,28,11.30
2010,03,02,12,29,11.20
2010,03,02,12,30,11.20
2010,03,02,12,31,11.20
2010,03,02,12,32,11.20
2010,03,02,12,33,11.20
2010,03,02,12,34,11.20
2010,03,02,12,35,11.30
2010,03,02,12,36,11.30
2010,03,02,12,37,11.30
2010,03,02,12,38,11.30
2010,03,02,12,39,11.30
2010,03,02,12,40,11.30
2010,03,02,12,41,11.30
2010,03,02,12,42,11.30
2010,03,02,12,43,11.40
2010,03,02,12,44,11.40
2010,03,02,12,45,11.30
2010,03,02,12,46,11.30
2010,03,02,12,47,11.30
2010,03,02,12,48,11.30
2010,03,02,12,49,11.30
2010,03,02,12,50,11.30
2010,03,02,12,51,11.30
2010,03,02,12,52,11.30
2010,03,02,12,53,11.30
2010,03,02,12,54,11.30
2010,03,02,12,55,11.30
2010,03,02,12,56,11.30
2010,03,02,12,57,11.30
2010,03,02,12,58,11.30
2010,03,02,12,59,11.40
2010,03,02,13,00,11.40
2010,03,02,13,01,11.40
2010,03,02,13,02,11.40
2010,03,02,13,03,11.40
2010,03,02,13,04,11.40
2010,03,02,13,05,11.40
2010,03,02,13,06,11.40
2010,03,02,13,07,11.40
2010,03,02,13,08,11.40
2010,03,02,13,09,11.40
2010,03,02,13,10,11.40
2010,03,02,13,11,11.40
2010,03,02,13,12,11.40
2010,03,02,13,13,11.40
2010,03,02,13,14,11.50
2010,03,02,13,15,11.60
2010,03,02,13,16,11.60
2010,03,02,13,17,11.60
2010,03,02,13,18,11.70
2010,03,02,13,19,11.70
2010,03,02,13,20,11.80
2010,03,02,13,21,11.80
2010,03,02,13,22,11.80
2010,03,02,13,23,11.80
2010,03,02,13,24,11.90
2010,03,02,13,25,12.00
2010,03,02,13,26,12.00
2010,03,02,13,27,12.00
2010,03,02,13,28,12.00
2010,03,02,13,29,12.10
2010,03,02,13,30,12.10
2010,03,02,13,31,12.20
2010,03,02,13,32,12.20
2010,03,02,13,33,12.20
2010,03,02,13,34,12.10
2010,03,02,13,35,12.10
2010,03,02,13,36,12.20
2010,03,02,13,37,12.20
2010,03,02,13,38,12.10
2010,03,02,13,39,12.10
2010,03,02,13,40,12.10
2010,03,02,13,41,12.10
2010,03,02,13,42,12.10
2010,03,02,13,43,12.20
2010,03,02,13,44,12.20
2010,03,02,13,45,12.30
2010,03,02,13,46,12.30
2010,03,02,13,47,12.40
2010,03,02,13,48,12.40
2010,03,02,13,49,12.50
2010,03,02,13,50,12.50
2010,03,02,13,51,12.60
2010,03,02,13,52,12.60
2010,03,02,13,53,12.70
2010,03,02,13,54,12.80
2010,03,02,13,55,12.80
2010,03,02,13,56,12.90
2010,03,02,13,57,12.90
2010,03,02,13,58,12.90
2010,03,02,13,59,12.90
2010,03,02,14,00,12.90
2010,03,02,14,01,12.80
2010,03,02,14,02,12.80
2010,03,02,14,03,12.80
2010,03,02,14,04,12.80
2010,03,02,14,05,12.80
2010,03,02,14,06,12.80
2010,03,02,14,07,12.80
2010,03,02,14,08,12.80
2010,03,02,14,09,12.80
2010,03,02,14,10,12.80
2010,03,02,14,11,12.80
2010,03,02,14,12,12.80
2010,03,02,14,13,12.90
2010,03,02,14,14,12.90
2010,03,02,14,15,12.90
2010,03,02,14,16,12.90
2010,03,02,14,17,13.00
2010,03,02,14,18,13.00
2010,03,02,14,19,13.00
2010,03,02,14,20,13.00
2010,03,02,14,21,13.10
2010,03,02,14,22,13.10
2010,03,02,14,23,13.10
2010,03,02,14,24,13.10
2010,03,02,14,25,13.20
2010,03,02,14,26,13.30
2010,03,02,14,27,13.30
2010,03,02,14,28,13.30
2010,03,02,14,29,13.30
2010,03,02,14,30,13.30
2010,03,02,14,31,13.30
2010,03,02,14,32,13.30
2010,03,02,14,33,13.30
2010,03,02,14,34,13.30
2010,03,02,14,35,13.30
2010,03,02,14,36,13.30
2010,03,02,14,37,13.30
2010,03,02,14,38,13.30
2010,03,02,14,39,13.30
2010,03,02,14,40,13.30
2010,03,02,14,41,13.20
2010,03,02,14,42,13.20
2010,03,02,14,43,13.20
2010,03,02,14,44,13.10
2010,03,02,14,45,13.10
2010,03,02,14,46,13.10
2010,03,02,14,47,13.10
2010,03,02,14,48,13.00
2010,03,02,14,49,13.00
2010,03,02,14,50,13.00
2010,03,02,14,51,13.00
2010,03,02,14,52,13.00
2010,03,02,14,53,13.00
2010,03,02,14,54,13.00
2010,03,02,14,55,12.90
2010,03,02,14,56,12.90
2010,03,02,14,57,12.80
2010,03,02,14,58,12.80
2010,03,02,14,59,12.70
2010,03,02,15,00,12.70
2010,03,02,15,01,12.60
2010,03,02,15,02,12.60
2010,03,02,15,03,12.50
2010,03,02,15,04,12.40
2010,03,02,15,05,12.30
2010,03,02,15,06,12.30
2010,03,02,15,07,12.20
2010,03,02,15,08,12.10
2010,03,02,15,09,12.00
2010,03,02,15,10,11.90
2010,03,02,15,11,11.80
2010,03,02,15,12,11.80
2010,03,02,15,13,11.80
2010,03,02,15,14,11.80
2010,03,02,15,15,11.80
2010,03,02,15,16,11.70
2010,03,02,15,17,11.70
2010,03,02,15,18,11.60
2010,03,02,15,19,11.60
2010,03,02,15,20,11.60
2010,03,02,15,21,11.60
2010,03,02,15,22,11.60
2010,03,02,15,23,11.60
2010,03,02,15,24,11.60
2010,03,02,15,25,11.60
2010,03,02,15,26,11.50
2010,03,02,15,27,11.60
2010,03,02,15,28,11.60
2010,03,02,15,29,11.60
2010,03,02,15,30,11.60
2010,03,02,15,31,11.60
2010,03,02,15,32,11.60
2010,03,02,15,33,11.60
2010,03,02,15,34,11.60
2010,03,02,15,35,11.60
2010,03,02,15,36,11.70
2010,03,02,15,37,11.70
2010,03,02,15,38,11.70
2010,03,02,15,39,11.80
2010,03,02,15,40,11.80
2010,03,02,15,41,11.80
2010,03,02,15,42,11.80
2010,03,02,15,43,11.80
2010,03,02,15,44,11.80
2010,03,02,15,45,11.80
2010,03,02,15,46,11.90
2010,03,02,15,47,11.90
2010,03,02,15,48,11.90
2010,03,02,15,49,12.00
2010,03,02,15,50,12.00
2010,03,02,15,51,12.00
2010,03,02,15,52,11.90
2010,03,02,15,53,11.90
2010,03,02,15,54,11.90
2010,03,02,15,55,11.90
2010,03,02,15,56,11.90
2010,03,02,15,57,12.00
2010,03,02,15,58,12.00
2010,03,02,15,59,11.90
2010,03,02,16,00,11.80
2010,03,02,16,01,11.80
2010,03,02,16,02,11.80
2010,03,02,16,03,11.80
2010,03,02,16,04,11.80
2010,03,02,16,05,11.70
2010,03,02,16,06,11.70
2010,03,02,16,07,11.70
2010,03,02,16,08,11.60
2010,03,02,16,09,11.60
2010,03,02,16,10,11.60
2010,03,02,16,11,11.60
2010,03,02,16,12,11.60
2010,03,02,16,13,11.60
2010,03,02,16,14,11.60
2010,03,02,16,15,11.60
2010,03,02,16,16,11.60
2010,03,02,16,17,11.60
2010,03,02,16,18,11.60
2010,03,02,16,19,11.60
2010,03,02,16,20,11.60
2010,03,02,16,21,11.60
2010,03,02,16,22,11.50
2010,03,02,16,23,11.40
2010,03,02,16,24,11.40
2010,03,02,16,25,11.40
2010,03,02,16,26,11.40
2010,03,02,16,27,11.40
2010,03,02,16,28,11.40
2010,03,02,16,29,11.40
2010,03,02,16,30,11.40
2010,03,02,16,31,11.40
2010,03,02,16,32,11.40
2010,03,02,16,33,11.30
2010,03,02,16,34,11.30
2010,03,02,16,35,11.30
2010,03,02,16,36,11.30
2010,03,02,16,37,11.30
2010,03,02,16,38,11.20
2010,03,02,16,39,11.20
2010,03,02,16,40,11.20
2010,03,02,16,41,11.20
2010,03,02,16,42,11.20
2010,03,02,16,43,11.20
2010,03,02,16,44,11.20
2010,03,02,16,45,11.20
2010,03,02,16,46,11.20
2010,03,02,16,47,11.20
2010,03,02,16,48,11.20
2010,03,02,16,49,11.20
2010,03,02,16,50,11.20
2010,03,02,16,51,11.20
2010,03,02,16,52,11.20
2010,03,02,16,53,11.20
2010,03,02,16,54,11.20
2010,03,02,16,55,11.20
2010,03,02,16,56,11.20
2010,03,02,16,57,11.20
2010,03,02,16,58,11.20
2010,03,02,16,59,11.20
2010,03,02,17,00,11.20
2010,03,02,17,01,11.20
2010,03,02,17,02,11.10
2010,03,02,17,03,11.10
2010,03,02,17,04,11.10
2010,03,02,17,05,11.10
2010,03,02,17,06,11.10
2010,03,02,17,07,11.20
2010,03,02,17,08,11.20
2010,03,02,17,09,11.20
2010,03,02,17,10,11.30
2010,03,02,17,11,11.30
2010,03,02,17,12,11.30
2010,03,02,17,13,11.30
2010,03,02,17,14,11.30
2010,03,02,17,15,11.30
2010,03,02,17,16,11.30
2010,03,02,17,17,11.30
2010,03,02,17,18,11.30
2010,03,02,17,19,11.30
2010,03,02,17,20,11.30
2010,03,02,17,21,11.30
2010,03,02,17,22,11.30
2010,03,02,17,23,11.30
2010,03,02,17,24,11.30
2010,03,02,17,25,11.20
2010,03,02,17,26,11.20
2010,03,02,17,27,11.20
2010,03,02,17,28,11.20
2010,03,02,17,29,11.20
2010,03,02,17,30,11.20
2010,03,02,17,31,11.20
2010,03,02,17,32,11.20
2010,03,02,17,33,11.20
2010,03,02,17,34,11.20
2010,03,02,17,35,11.20
2010,03,02,17,36,11.20
2010,03,02,17,37,11.20
2010,03,02,17,38,11.20
2010,03,02,17,39,11.20
2010,03,02,17,40,11.20
2010,03,02,17,41,11.20
2010,03,02,17,42,11.20
2010,03,02,17,43,11.20
2010,03,02,17,44,11.20
2010,03,02,17,45,11.20